Starlink 32022

operational
NORAD ID: 60149 Int'l Des: 2024-120 Owner: SPXS Country: US Constellation: starlink
LEOCIRCULAR

关于 Starlink 32022

正在加载描述...

实时位置

正在加载3D地球...

即将过境

高度历史

Altitude vs Time

uPlot chart will show altitude changes over time

两行轨道根数

1 60149U 24120Q 25351.24258357 -.00000183 00000-0 59507-5 0 9995
2 60149 53.1621 342.8457 0001407 92.4361 267.6801 15.30190251 83839
Epoch: Dec 17, 2025 • Age: 8 hours

当前状态

高度 483.8 km
速度 7.62 km/s
星下点 -26.95°S, 30.01°E
发射日期 Jun 27, 2024
运行时间 1.4 years
类型 internet

技术详情

分类 Payload
质量 730.00 kg
干质量 700.00 kg
总质量 730.00 kg
长度 0.30 m
直径 4.10 m
跨度 29.00 m
形状 Box + pan
制造商 SPXS
平台类型 Starlink V2M
阶段状态 In Orbit
所有者/国家 SPXS/US

大型星座

Loading constellations...